Waarnemingen

Advertentie
Mijn weer
Lannion, Frankrijk (7118): temperatuur & dauwpunt: 16.02.2018 21:00:00 - 22.02.2018 21:00:00 (CET)Lannion, Frankrijk (7118): windsnelheid & windstoten: 16.02.2018 21:00:00 - 22.02.2018 21:00:00 (CET)Lannion, Frankrijk (7118): windrichting: 16.02.2018 21:00:00 - 22.02.2018 21:00:00 (CET)Lannion, Frankrijk (7118): luchtdruk: 16.02.2018 21:00:00 - 22.02.2018 21:00:00 (CET)Lannion, Frankrijk (7118): zicht: 16.02.2018 21:00:00 - 22.02.2018 21:00:00 (CET)Lannion, Frankrijk (7118): neerslag: 16.02.2018 21:00:00 - 22.02.2018 21:00:00 (CET)
Datum & Tijd tt [°C] td [°C] ff [km/u] ff [kn] fx [km/u] fx [kn] dd ppp [hPa] vv [km] rr [mm]
22.02.2018 21:00:00 2,5 -1,5 11 6 20 11 ONO 1019,2 10 0,0
22.02.2018 20:00:00 2,9 -1,5 10 5 18 10 ONO 1019,3 9 0,0
22.02.2018 19:00:00 4,0 -1,6 10 6 31 17 ONO 1019,0 11 0,0
22.02.2018 18:00:00 5,2 -1,9 14 8 34 18 ONO 1018,8 13 0,0
22.02.2018 17:00:00 5,8 -1,4 16 8 37 20 NO 1019,0 12 0,0
22.02.2018 16:00:00 5,5 -1,7 20 11 37 20 NO 1019,3 10 0,0
22.02.2018 15:00:00 6,0 -0,7 21 11 35 19 ONO 1019,8 10 0,0
22.02.2018 14:00:00 6,2 -0,8 19 11 39 21 ONO 1020,4 10 0,0
22.02.2018 13:00:00 6,1 -0,4 18 10 37 20 ONO 1020,8 9 0,0
22.02.2018 12:00:00 5,4 -0,2 17 9 34 18 ONO 1021,1 8 0,0
22.02.2018 11:00:00 5,8 0,7 15 8 32 17 ONO 1021,2 6 0,0
22.02.2018 10:00:00 4,4 0,2 9 5 18 10 O 1021,3 5 0,0
22.02.2018 09:00:00 2,6 -1,0 5 3 16 8 ONO 1021,5 6 0,0
22.02.2018 08:00:00 1,9 -1,4 8 4 12 7 O 1021,3 8 0,0
22.02.2018 07:00:00 2,6 -1,0 9 5 15 8 O 1021,3 13 0,0
22.02.2018 06:00:00 2,5 -0,9 5 3 16 8 ONO 1021,4 11 0,0
22.02.2018 05:00:00 3,2 -0,8 8 4 17 9 ONO 1021,4 13 0,0
22.02.2018 04:00:00 3,3 -0,7 10 5 22 12 ONO 1021,5 13 0,0
22.02.2018 03:00:00 3,5 -0,7 12 6 24 13 ONO 1022,1 14 0,0
22.02.2018 02:00:00 4,0 -0,8 14 7 30 16 ONO 1022,3 15 0,0
22.02.2018 01:00:00 4,0 -0,4 10 5 24 13 ONO 1022,9 13 0,0
22.02.2018 00:00:00 4,5 -0,5 13 7 26 14 ONO 1023,1 14 0,0
21.02.2018 23:00:00 4,5 -0,5 12 7 27 14 ONO 1023,8 14 0,0
21.02.2018 22:00:00 5,1 -0,1 15 8 25 14 ONO 1023,8 12 0,0
21.02.2018 21:00:00 5,4 0,4 11 6 29 16 NO 1023,7 11 0,0
21.02.2018 20:00:00 5,8 0,7 12 7 34 18 NO 1023,7 10 0,0
21.02.2018 19:00:00 5,4 0,4 5 3 19 10 NO 1023,6 8 0,0
21.02.2018 18:00:00 6,0 -0,1 10 5 30 16 NO 1023,7 9 0,0
21.02.2018 17:00:00 6,9 -0,6 15 8 33 18 ONO 1023,7 11 0,0
21.02.2018 16:00:00 7,2 -1,2 13 7 39 21 NO 1023,7 12 0,0
21.02.2018 15:00:00 7,6 -1,1 22 12 41 22 ONO 1023,8 9 0,0
21.02.2018 14:00:00 7,8 -0,2 16 9 34 18 ONO 1024,7 9 0,0
21.02.2018 13:00:00 7,0 1,7 14 8 30 16 ONO 1025,3 6 0,0
21.02.2018 12:00:00 7,1 1,8 16 9 31 17 ONO 1025,4 8 0,0
21.02.2018 11:00:00 6,6 2,1 17 9 34 18 NO 1025,3 12 0,0
21.02.2018 10:00:00 6,4 3,4 8 4 22 12 NO 1025,2 9 0,0
21.02.2018 09:00:00 6,2 3,0 14 7 26 14 ONO 1024,8 11 0,0
21.02.2018 08:00:00 6,8 3,0 13 7 25 13 ONO 1024,4 14 0,0
21.02.2018 07:00:00 7,1 3,2 13 7 29 16 NO 1024,5 18 0,0
21.02.2018 06:00:00 7,0 3,2 15 8 40 22 NO 1024,2 49 0,0
21.02.2018 05:00:00 7,6 3,4 24 13 44 24 N 1024,1 41 0,0
21.02.2018 04:00:00 7,8 3,3 26 14 42 23 N 1024,2 46 0,0
21.02.2018 03:00:00 7,9 3,7 24 13 49 26 N 1024,5 20 0,0
21.02.2018 02:00:00 8,2 3,2 26 14 48 26 N 1024,6 20 0,0
21.02.2018 01:00:00 8,0 3,6 26 14 46 25 N 1024,6 19 0,0
21.02.2018 00:00:00 7,5 4,3 23 12 46 25 N 1024,8 15 0,0
20.02.2018 23:00:00 7,6 3,8 21 11 43 23 N 1024,9 17 0,0
20.02.2018 22:00:00 7,7 3,5 20 11 36 20 N 1024,7 18 0,0
20.02.2018 21:00:00 7,5 4,1 16 8 27 14 NNW 1024,7 20 0,0
20.02.2018 20:00:00 7,3 3,2 11 6 23 13 N 1024,6 19 0,0
20.02.2018 19:00:00 7,4 2,9 11 6 30 16 N 1024,3 20 0,0
20.02.2018 18:00:00 8,5 2,9 18 10 42 23 N 1024,1 20 0,0
20.02.2018 17:00:00 9,0 2,8 20 11 42 23 N 1023,9 12 0,0
20.02.2018 16:00:00 9,3 2,8 23 12 46 25 N 1024,0 19 0,0
20.02.2018 15:00:00 9,4 4,0 24 13 50 27 N 1024,3 19 0,0
20.02.2018 14:00:00 9,6 4,0 26 14 45 25 N 1024,4 19 0,0
20.02.2018 13:00:00 9,7 6,0 20 11 40 22 N 1024,0 17 0,0
20.02.2018 12:00:00 8,6 5,2 22 12 45 25 NNW 1024,2 15 0,0
20.02.2018 11:00:00 8,8 6,2 24 13 - - NNW 1024,0 33 0,2
20.02.2018 10:00:00 8,8 7,7 22 12 41 22 NNW 1023,5 16 0,0
20.02.2018 09:00:00 9,2 8,6 20 11 34 19 NW 1022,7 9 0,0
20.02.2018 08:00:00 8,9 8,4 16 8 31 17 NW 1022,5 8 0,0
20.02.2018 07:00:00 8,3 7,7 16 9 34 18 NW 1022,2 6 0,0
20.02.2018 06:00:00 8,3 7,7 16 9 26 14 NW 1022,2 11 0,0
20.02.2018 05:00:00 8,3 7,5 16 9 32 17 NW 1021,8 10 0,0
20.02.2018 04:00:00 8,7 7,6 16 9 36 19 NW 1021,6 12 0,0
20.02.2018 03:00:00 8,9 7,8 21 11 39 21 NW 1021,6 12 0,0
20.02.2018 02:00:00 9,0 8,2 19 10 39 21 WNW 1021,5 9 0,0
20.02.2018 01:00:00 9,4 8,8 20 11 36 19 WNW 1021,7 8 0,0
20.02.2018 00:00:00 9,5 8,9 18 10 32 17 WNW 1021,3 7 0,0
19.02.2018 23:00:00 9,0 8,2 18 10 30 16 WNW 1021,3 12 0,0
19.02.2018 22:00:00 9,2 8,6 19 10 32 17 WNW 1021,1 8 0,0
19.02.2018 21:00:00 9,2 8,7 16 9 27 15 WNW 1021,2 7 0,0
19.02.2018 20:00:00 9,3 8,8 17 9 31 17 WNW 1021,2 9 0,0
19.02.2018 19:00:00 9,2 8,9 16 9 26 14 WNW 1021,3 8 0,0
19.02.2018 18:00:00 9,3 9,0 17 9 29 16 WNW 1021,0 7 0,0
19.02.2018 17:00:00 9,3 9,0 19 10 29 16 WNW 1020,8 9 0,0
19.02.2018 16:00:00 9,2 9,1 19 10 32 17 WNW 1020,8 9 0,0
19.02.2018 15:00:00 9,4 9,3 16 9 30 16 WNW 1021,0 1,7 0,0
19.02.2018 14:00:00 9,8 9,7 17 9 29 16 WNW 1020,9 0,4 0,0
19.02.2018 13:00:00 9,8 9,7 15 8 29 15 NW 1021,0 1,1 0,0
19.02.2018 12:00:00 9,7 9,6 17 9 26 14 WNW 1020,9 0,3 0,0
19.02.2018 11:00:00 9,6 9,5 16 9 26 14 WNW 1020,7 0,2 0,0
19.02.2018 10:00:00 9,6 9,5 13 7 22 12 WNW 1020,6 0,2 0,0
19.02.2018 09:00:00 9,4 9,3 13 7 21 11 WNW 1020,3 0,2 0,2
19.02.2018 08:00:00 9,4 9,3 11 6 20 11 WNW 1020,1 0,4 1,0
19.02.2018 07:00:00 9,4 9,3 12 7 17 9 WNW 1019,9 0,6 0,8
19.02.2018 06:00:00 9,3 9,2 10 5 15 8 W 1019,8 0,3 0,2
19.02.2018 05:00:00 9,4 9,3 11 6 17 9 WNW 1019,9 0,2 0,4
19.02.2018 04:00:00 9,4 9,1 10 6 20 11 WNW 1020,1 0,5 0,0
19.02.2018 03:00:00 9,5 9,2 11 6 20 11 WNW 1020,1 0,6 0,0
19.02.2018 02:00:00 9,4 9,1 10 5 16 9 WNW 1020,5 0,5 0,0
19.02.2018 01:00:00 9,3 9,0 9 5 17 9 WNW 1020,7 0,4 0,0
19.02.2018 00:00:00 9,4 9,1 10 6 19 10 WNW 1020,9 1,0 0,0
18.02.2018 23:00:00 9,6 9,3 12 7 23 12 WNW 1020,8 6 0,0
18.02.2018 22:00:00 9,6 9,3 11 6 20 11 WNW 1020,9 1,0 0,2
18.02.2018 21:00:00 9,6 9,3 11 6 26 14 WNW 1020,9 0,5 0,0
18.02.2018 20:00:00 9,7 9,4 13 7 28 15 WNW 1021,0 0,4 0,0
18.02.2018 19:00:00 9,8 9,5 18 10 26 14 WNW 1020,7 0,4 0,6
18.02.2018 18:00:00 9,9 9,6 17 9 25 13 W 1020,6 1,6 0,4
18.02.2018 17:00:00 10,0 9,7 18 10 26 14 W 1020,5 0,3 0,2
18.02.2018 16:00:00 10,3 10,0 16 9 27 15 W 1020,5 0,4 0,0
18.02.2018 15:00:00 10,5 10,0 16 8 25 14 W 1020,5 0,8 0,0
18.02.2018 14:00:00 10,6 10,1 15 8 26 14 W 1020,6 2,1 0,9
18.02.2018 13:00:00 10,6 10,1 16 9 23 13 W 1020,8 1,9 1,2
18.02.2018 12:00:00 10,6 10,1 13 7 22 12 W 1020,8 2,4 0,8
18.02.2018 11:00:00 10,2 9,7 13 7 21 11 W 1020,9 1,8 1,2
18.02.2018 10:00:00 10,0 9,7 14 7 22 12 WZW 1020,7 1,8 1,0
18.02.2018 09:00:00 10,0 9,5 12 7 21 11 WZW 1020,9 2,0 1,2
18.02.2018 08:00:00 9,9 9,4 11 6 21 12 WZW 1020,8 1,2 0,4
18.02.2018 07:00:00 9,8 9,3 14 7 26 14 WZW 1020,6 2,2 0,2
18.02.2018 06:00:00 9,7 9,2 16 9 26 14 W 1020,8 2,7 0,2
18.02.2018 05:00:00 9,5 9,0 12 7 21 11 WZW 1021,0 2,2 0,6
18.02.2018 04:00:00 8,9 8,3 12 6 29 15 ZW 1021,2 10 0,0
18.02.2018 03:00:00 8,3 7,5 15 8 23 12 Z 1021,8 4,3 0,4
18.02.2018 02:00:00 8,1 6,9 13 7 29 16 ZZW 1022,0 55 0,0
18.02.2018 01:00:00 7,2 6,3 13 7 22 12 ZO 1022,1 52 0,0
18.02.2018 00:00:00 6,8 5,9 19 11 27 14 ZO 1022,9 20 0,4
17.02.2018 23:00:00 6,7 5,6 13 7 21 11 ZO 1023,8 12 1,0
17.02.2018 22:00:00 7,0 5,5 9 5 17 9 ZZO 1024,5 9 0,4
17.02.2018 21:00:00 7,4 5,2 11 6 21 12 ZW 1024,7 14 0,2
17.02.2018 20:00:00 7,2 4,8 7 4 11 6 ZZO 1025,0 18 0,0
17.02.2018 19:00:00 6,6 3,7 8 4 18 10 WZW 1025,0 60 0,0
17.02.2018 18:00:00 8,7 4,1 13 7 26 14 WZW 1024,6 56 0,0
17.02.2018 17:00:00 9,8 5,2 16 9 28 15 W 1024,7 58 0,0
17.02.2018 16:00:00 10,4 5,0 21 11 32 17 WZW 1024,6 20 0,0
17.02.2018 15:00:00 10,4 4,7 18 10 27 15 W 1024,6 19 0,0
17.02.2018 14:00:00 10,4 5,0 18 10 34 18 NW 1024,8 60 0,0
17.02.2018 13:00:00 10,3 6,3 18 10 29 15 W 1024,7 20 0,0
17.02.2018 12:00:00 9,9 7,0 13 7 19 11 WZW 1024,3 20 0,0
17.02.2018 11:00:00 8,3 5,2 6 3 15 8 ZW 1023,7 18 0,0
17.02.2018 10:00:00 7,1 5,1 6 4 18 10 WZW 1023,3 18 0,0
17.02.2018 09:00:00 4,6 3,9 6 3 10 5 WZW 1022,8 17 0,0
17.02.2018 08:00:00 2,5 1,5 0 0 4 2 N 1022,2 11 0,0
17.02.2018 07:00:00 2,8 1,5 0 0 7 4 N 1021,5 11 0,0
17.02.2018 06:00:00 2,9 1,4 2 1 4 2 Z 1021,1 14 0,0
17.02.2018 05:00:00 2,9 1,7 0 0 9 5 N 1020,7 16 0,0
17.02.2018 04:00:00 1,4 -0,1 4 2 8 5 WNW 1019,7 12 0,0
17.02.2018 03:00:00 2,9 0,9 0 0 7 4 N 1019,8 16 0,0
17.02.2018 02:00:00 4,1 1,3 0 0 16 9 N 1020,0 19 0,0
17.02.2018 01:00:00 4,8 1,8 9 5 16 9 O 1020,1 19 0,0
17.02.2018 00:00:00 4,7 1,9 11 6 20 11 OZO 1020,9 18 0,0
16.02.2018 23:00:00 5,0 1,8 14 8 20 11 OZO 1020,7 19 0,0
16.02.2018 22:00:00 4,5 1,3 7 4 14 8 O 1021,3 19 0,0
16.02.2018 21:00:00 5,0 1,3 10 5 18 10 OZO 1021,6 20 0,0

tt = temperatuur
td = dauwpunt
ff = windsnelheid
fx = windstoten
dd = windrichting
ppp = luchtdruk
vv = zicht
rr = neerslag

Weerstations in de omgeving